ONEWEB-0240 (48785 NORAD) Tracking and Keplerian Element Data

This shows tracking and keplerian element data for the satellite.

Feedback or suggestion? Click here.




ElementValue
Catalog48785
NameONEWEB-0240
Epoch Orbit175
Epoch Day170.58334491
Epoch Year2021
RAAN268.8609
Inclination87.4073
Eccentricity0.0006436
Argument of Perigee167.0506
Mean Anonmoly346.5384
Mean Motion15.34986509
Decay Rate-0.00941548
L11 48785U 21045U 21170.58334491 -.00941548 00000-0 -30358-1 0 9995
L22 48785 87.4073 268.8609 0006436 167.0506 346.5384 15.34986509 1752

Live tracking and technical data element details for ONEWEB-0240 (NORAD 48785). ONEWEB-0240 can be tracked NOW for your location showing map with azimuth and elevation plus other details from your city location.

Track the satellite on the map from your city or location and see movement details for azimuth, elevation, latitude, longitude, range, height, and movement on the map or in text.







IsCatalogInMostPopularTable: catalog: 48785, numindb: 7
Update: records affected: 1



GetName: 48785 ONEWEB-0240

Hit Count: updated at: Mon, 21 Jun 2021 03:03:44 GMT